📊 Raw Sensor Data

Showing records 34951 to 34975 of 84,869 total

ID Distance (ft) Battery V Battery A Int Temp (°F) Int Humid (%) Ext Temp (°F) Solar V RSSI SNR Time Stamp
49931 15.5 3.78 0 108 41 98 5.20 -72 7 08/22/2025 02:00 PM
49930 15.5 3.78 0 106 41 97 5.20 -71 8 08/22/2025 01:45 PM
49929 15.5 3.94 0 101 41 95 5.20 -72 7 08/22/2025 01:15 PM
49928 15.5 3.78 0 99 42 90 5.10 -69 7 08/22/2025 01:00 PM
49927 15.5 3.99 0 97 42 89 5.10 -72 7 08/22/2025 12:45 PM
49926 15.5 3.77 0 96 42 88 5.10 -70 8 08/22/2025 12:30 PM
49925 15.5 4.01 0 94 42 87 5.10 -71 8 08/22/2025 12:15 PM
49924 15.5 3.78 0 92 41 90 5.10 -70 8 08/22/2025 11:45 AM
49923 15.5 4.07 0 90 42 88 5.10 -69 8 08/22/2025 11:30 AM
49922 15.6 3.77 0 89 42 90 5.10 -71 7 08/22/2025 11:15 AM
49921 15.5 3.94 0 88 41 90 5.10 -69 8 08/22/2025 11:00 AM
49920 15.7 3.78 0 86 41 87 5.10 -71 7 08/22/2025 10:45 AM
49919 15.5 3.77 0 84 41 88 5.10 -70 7 08/22/2025 10:30 AM
49918 15.6 3.77 0 82 42 85 5.10 -71 7 08/22/2025 10:15 AM
49917 15.5 3.78 0 80 42 82 5.10 -70 8 08/22/2025 10:00 AM
49916 15.5 3.77 0 78 42 76 5.10 -71 8 08/22/2025 09:45 AM
49915 15.5 3.97 0 76 42 81 5.10 -71 8 08/22/2025 09:30 AM
49914 15.5 3.77 0 74 42 77 5.10 -70 8 08/22/2025 09:15 AM
49913 15.5 3.77 0 73 42 74 5.10 -71 8 08/22/2025 09:00 AM
49912 15.5 3.77 0 72 42 75 5.10 -71 7 08/22/2025 08:45 AM
49911 15.5 3.77 0 70 42 75 5.10 -71 7 08/22/2025 08:30 AM
49910 15.5 4.01 0 69 42 71 5.10 -71 7 08/22/2025 08:15 AM
49909 15.5 3.77 0 67 42 73 5.10 -71 8 08/22/2025 08:00 AM
49908 15.4 3.96 36 65 43 74 4.50 -71 7 08/22/2025 07:45 AM
49907 15.4 3.75 15 63 42 71 4.50 -71 8 08/22/2025 07:30 AM